ECMWFNIL_850_temp_084.txt.gz
Temp
9 9 9 10 10 11 11 12 12 13 13 13 13 13 13 12 12 12 12 12 12 12 12 12 12 11 11 10 10 10 9 9 9 9 9 9 9 10 10 10 9 9
9 9 9 9 10 10 11 11 12 12 12 12 12 12 12 12 12 12 12 12 12 12 12 12 12 12 11 11 11 11 10 9 9 9 9 8 8 9 9 9 9 9
9 9 9 9 10 10 11 11 11 11 11 11 11 11 11 11 11 11 11 11 12 12 12 12 12 12 11 11 11 11 10 10 10 10 9 9 8 8 8 8 8 8
9 9 9 10 10 10 11 11 11 10 10 10 10 10 10 10 10 10 11 11 11 11 11 11 11 11 11 10 10 10 10 10 10 10 10 9 9 8 8 8 8 8
9 9 9 9 10 10 10 11 11 10 10 10 10 10 10 10 10 9 9 10 10 10 10 10 10 10 10 10 10 9 9 9 9 9 9 9 9 9 9 8 8 8
8 9 9 9 9 10 10 10 10 10 10 10 10 9 9 9 9 8 8 8 8 8 9 9 9 9 9 9 9 9 9 8 8 8 9 9 9 9 9 9 8 8
8 8 8 9 9 10 10 9 9 9 9 9 9 9 9 8 8 7 7 7 7 7 7 8 8 8 9 9 9 8 8 8 8 8 8 8 9 9 9 9 9 8
8 8 8 8 9 10 9 9 9 8 8 8 8 8 8 8 7 7 7 6 7 7 7 7 7 7 8 8 8 8 8 8 8 8 8 8 8 8 8 9 9 8
7 7 7 8 8 8 8 8 8 8 7 7 8 7 7 7 6 6 6 6 6 6 6 6 6 6 7 7 7 7 7 7 6 6 6 7 7 7 7 8 8 8
7 7 7 7 7 7 7 7 7 7 7 7 7 6 6 6 6 6 6 6 6 6 6 6 6 6 6 6 6 6 6 5 5 5 5 5 5 5 6 6 6 6
6 6 6 6 6 6 6 6 6 6 6 6 6 6 6 6 6 6 6 6 6 6 6 6 6 6 6 6 5 5 5 5 5 5 5 4 4 4 4 4 4 4
5 5 5 5 6 6 6 6 6 6 6 6 6 6 6 6 6 6 6 6 6 5 5 5 5 5 5 5 5 5 4 4 4 4 4 4 4 4 4 4 4 3
5 5 5 5 5 6 6 6 6 6 6 6 6 6 6 6 6 6 6 6 5 5 5 5 5 5 5 5 4 4 4 4 4 4 4 4 4 4 4 3 3 3
4 4 4 5 5 5 5 6 6 6 6 6 6 6 6 6 6 6 6 5 5 5 5 5 5 5 5 5 4 4 3 3 3 3 3 3 3 3 3 3 3 3
4 4 4 5 5 5 5 5 5 6 6 6 6 6 6 6 5 5 5 5 5 5 5 5 5 5 4 3 4 4 3 3 3 2 3 3 3 3 3 3 3 3
3 4 4 5 5 5 5 5 5 5 5 5 6 5 5 5 5 5 5 5 5 5 5 5 4 4 3 3 3 3 3 3 3 2 2 2 3 3 3 3 3 3
3 4 4 4 4 4 4 5 5 5 5 5 5 5 5 5 5 5 5 5 5 4 4 4 4 3 3 3 3 3 3 3 3 3 2 2 2 2 2 2 2 2
3 4 4 4 4 4 4 4 4 5 5 5 5 5 5 4 4 4 4 4 4 4 4 4 3 3 3 3 3 3 3 3 3 3 2 2 2 2 2 2 2 2
3 3 3 3 3 3 4 4 4 4 4 4 4 4 4 4 4 4 4 4 4 4 3 3 3 2 2 2 2 2 3 3 2 2 2 2 2 1 1 1 1 1
3 3 3 3 3 3 3 4 4 4 4 4 4 4 4 4 4 4 4 4 3 3 3 2 2 2 2 2 2 2 2 2 2 2 2 1 1 1 1 0 0 0
3 3 3 3 3 3 3 3 3 3 3 4 4 4 4 4 4 4 3 3 3 2 2 2 1 1 1 2 2 2 2 2 2 2 2 1 1 0 -0 -0 -0 -0
3 3 3 3 3 3 3 3 3 3 3 3 3 4 4 4 4 3 3 3 2 2 2 1 0 0 1 1 1 2 2 2 2 1 1 1 0 -0 -0 -0 -1 -1
3 3 3 3 2 3 3 3 3 3 3 3 3 4 3 3 3 3 3 2 2 2 1 0 -0 -0 -0 -0 0 1 1 1 1 1 0 -0 -0 -0 -1 -1 -1 -2
2 2 2 2 2 2 2 2 3 3 3 3 3 3 3 3 3 3 2 2 2 1 0 -0 -1 -1 -1 -1 -1 -1 -1 -1 -1 -1 -1 -1 -1 -1 -1 -1 -1 -1
2 2 2 2 2 2 2 2 3 3 3 3 3 3 3 3 3 2 2 2 1 1 0 0 -1 -1 -1 -1 -2 -2 -2 -2 -2 -2 -2 -2 -1 -1 -1 -1 -1 -1
2 1 1 2 2 2 2 2 2 3 3 3 3 3 3 2 2 2 2 1 1 1 0 0 -1 -1 -2 -2 -2 -3 -3 -3 -3 -3 -2 -2 -2 -2 -1 -1 -1 -1

ECMWFNIL_850_temp_087.txt.gz
Temp
11 11 11 11 12 12 12 11 11 11 11 11 11 11 10 10 10 10 11 11 10 10 10 10 10 10 10 10 10 10 10 10 10 9 9 9 9 9 9 8 8 8
10 11 11 11 11 12 11 11 11 11 11 11 10 10 10 10 10 10 10 10 10 10 10 10 10 10 10 10 10 10 10 9 9 9 9 9 9 9 9 9 9 8
10 10 10 10 11 11 11 11 11 11 11 10 10 10 10 9 9 9 9 9 9 10 10 10 9 10 10 10 10 9 9 9 9 9 9 9 9 9 9 9 9 9
9 9 9 9 10 10 10 10 11 11 11 10 10 10 10 9 9 9 9 9 9 9 9 9 9 9 9 9 9 9 9 9 9 9 9 9 9 9 9 9 9 9
7 8 8 8 9 9 10 10 10 10 10 10 10 10 9 9 9 9 8 8 8 8 8 9 9 9 9 9 9 9 9 9 8 8 8 8 8 8 8 8 8 8
7 7 8 8 8 9 9 10 10 10 9 9 9 9 9 9 8 8 8 8 8 8 8 8 8 9 9 8 8 8 8 8 8 8 8 8 7 7 7 7 7 7
6 7 7 7 8 8 9 9 9 9 8 8 9 8 8 8 8 8 7 7 7 8 8 8 8 8 8 8 8 8 8 8 7 7 7 7 7 7 6 6 6 6
6 7 7 7 8 8 8 8 8 8 8 8 8 7 7 7 7 7 7 7 7 7 7 7 7 8 8 8 8 7 7 7 7 6 6 6 6 6 6 5 5 5
6 6 6 7 7 7 7 7 7 7 7 7 7 7 7 7 7 7 7 7 7 7 7 7 7 7 7 7 7 7 6 6 6 5 5 5 5 5 5 5 5 5
6 6 6 7 7 7 7 7 7 7 7 7 6 6 6 6 6 6 6 6 6 6 6 6 6 6 6 6 6 6 6 5 5 5 4 4 4 4 4 4 4 4
6 6 6 6 6 6 6 6 7 6 6 6 6 6 6 6 6 6 6 6 6 6 6 6 6 6 6 6 6 6 5 5 5 4 4 4 4 4 4 4 4 4
6 6 6 6 6 6 6 6 6 6 6 6 6 6 6 6 6 6 6 6 6 6 6 6 6 6 6 6 5 5 5 5 4 4 4 4 3 3 3 3 3 3
6 6 6 6 6 6 6 6 6 6 6 6 6 6 6 6 6 5 5 5 5 5 5 5 6 6 6 5 5 5 4 4 4 4 4 3 3 3 3 3 3 3
5 6 6 6 6 6 6 6 6 6 6 6 6 6 6 5 5 5 5 5 5 5 5 5 5 5 5 5 5 4 4 4 4 4 3 3 3 3 3 3 3 3
5 5 6 6 6 6 6 6 6 6 6 6 6 5 5 5 5 5 5 5 5 5 5 5 5 4 4 4 4 4 4 4 4 3 3 3 3 3 3 2 2 2
5 5 5 5 6 6 6 6 6 6 6 5 5 5 5 5 5 5 5 5 5 5 5 4 4 4 4 4 4 4 4 4 3 3 3 2 2 2 2 2 2 2
5 5 5 5 5 5 5 6 5 5 5 5 5 5 5 5 5 5 4 4 4 4 4 4 4 4 4 4 4 4 4 3 3 3 2 2 2 2 1 2 2 2
5 5 5 5 5 5 5 5 5 5 5 5 5 4 4 4 4 4 4 4 4 4 4 4 4 4 4 4 3 3 3 3 3 2 2 2 1 1 1 1 1 1
4 5 5 5 5 5 5 5 5 5 5 4 4 4 4 4 4 4 4 4 4 4 3 3 3 3 3 3 3 3 3 3 2 1 1 0 0 0 0 0 0 -0
4 5 5 5 5 5 5 4 4 4 4 4 4 4 4 4 4 4 3 3 3 3 3 3 3 3 3 3 3 2 2 2 1 0 -0 -0 -0 -1 -1 -1 -1 -1
4 4 4 4 4 4 4 4 4 4 4 4 4 4 4 4 3 3 3 3 3 3 3 3 2 3 3 3 2 2 2 1 1 0 -0 -1 -1 -1 -1 -2 -2 -2
4 4 4 4 4 4 4 4 4 4 4 4 4 4 3 3 3 3 3 3 2 2 2 2 2 2 2 2 2 2 1 1 0 -0 -1 -1 -1 -1 -1 -1 -2 -2
4 4 4 4 4 4 4 4 3 3 3 3 3 3 3 3 3 3 2 2 2 2 2 2 1 1 1 0 0 0 0 0 -1 -1 -1 -1 -1 -1 -1 -1 -1 -2
3 3 3 4 4 4 3 3 3 3 3 3 3 3 3 3 3 2 2 2 2 2 2 1 1 -0 -0 -1 -1 -1 -1 -1 -2 -2 -2 -1 -1 -1 -1 -1 -1 -2
3 3 3 3 3 3 3 3 3 3 3 3 3 3 3 2 2 2 2 2 2 2 1 1 0 -1 -1 -1 -2 -2 -2 -2 -3 -3 -2 -2 -2 -2 -2 -2 -2 -2
3 3 3 3 3 3 3 3 3 3 3 3 3 2 2 2 2 2 2 2 2 1 1 1 -0 -1 -1 -2 -2 -2 -3 -3 -3 -3 -3 -2 -2 -2 -2 -2 -2 -2

ECMWFNIL_850_temp_093.txt.gz
Temp
7 7 7 7 6 6 6 6 8 8 7 7 9 9 9 9 10 10 10 9 9 9 10 10 10 10 10 9 9 9 9 9 10 9 9 9 8 8 8 8 7 6
6 6 6 6 7 7 7 8 10 9 8 8 9 9 9 9 9 9 9 9 9 9 9 9 9 9 9 9 9 9 9 9 9 8 7 8 8 7 7 6 6 5
5 5 6 6 7 8 9 10 10 8 8 9 9 9 9 9 8 8 8 8 8 8 8 9 9 9 9 8 8 8 8 8 8 7 6 6 6 6 5 5 5 4
5 5 5 6 6 7 8 8 9 8 9 9 9 8 8 8 8 8 8 8 8 8 8 8 8 8 8 8 8 8 7 7 7 6 5 5 5 5 5 4 4 4
5 5 5 5 5 6 7 8 8 8 9 9 8 8 8 8 8 7 7 7 7 7 7 7 8 8 7 7 7 7 6 5 5 5 4 4 4 4 4 4 3 3
5 5 5 5 6 7 8 8 8 8 8 8 8 7 7 7 7 7 7 7 7 7 7 7 7 7 7 7 6 7 6 5 5 4 4 4 4 3 3 3 3 3
4 5 6 6 7 8 8 8 8 8 8 7 7 7 7 7 7 7 6 6 6 7 7 6 7 7 7 7 6 6 6 6 5 4 4 4 3 3 3 3 2 2
4 5 6 7 7 7 8 8 8 7 7 7 7 7 6 7 7 6 6 6 6 6 6 6 6 7 6 6 6 5 5 5 5 4 4 3 3 3 3 2 2 2
4 5 7 7 7 7 7 7 7 7 6 6 7 7 7 6 6 6 6 6 6 6 6 6 6 6 6 6 6 5 5 4 4 4 3 3 3 2 2 2 2 2
5 5 6 7 7 7 7 7 7 6 6 6 6 6 6 6 5 5 6 6 6 6 6 6 6 6 6 6 6 5 5 4 3 3 3 2 2 2 2 2 1 1
6 6 6 7 7 7 7 7 7 6 6 6 6 6 6 5 5 4 5 5 6 6 6 6 6 6 6 6 6 5 4 4 3 2 2 2 2 2 2 1 1 1
6 7 7 7 7 7 7 7 7 6 6 5 5 5 5 5 5 5 5 5 5 6 6 6 6 6 6 6 6 4 3 3 2 2 2 2 2 2 1 1 1 1
7 7 7 7 7 7 7 7 6 6 6 5 5 5 4 4 5 5 5 5 5 5 6 6 6 6 5 6 6 4 2 2 2 2 2 1 1 1 1 1 1 1
7 7 7 7 7 7 6 6 6 6 6 6 6 5 4 4 4 4 5 5 5 5 6 6 5 5 5 5 6 5 3 1 2 2 1 1 1 1 1 1 1 1
7 7 6 6 6 6 6 6 6 6 6 5 6 5 5 4 3 3 4 5 5 5 5 6 5 5 5 5 5 6 4 2 1 1 1 1 1 1 1 1 1 1
6 6 6 6 6 6 6 6 6 6 5 5 5 5 5 4 4 4 4 5 5 5 5 5 5 5 5 5 5 5 5 2 1 1 1 1 1 1 1 1 1 1
6 6 6 6 6 6 6 5 5 5 5 5 5 5 5 5 5 5 5 5 5 5 5 5 5 5 4 4 4 5 4 3 1 1 1 1 1 1 1 1 0 0
5 5 6 5 5 5 5 5 5 5 5 5 5 5 5 5 5 4 4 4 4 4 4 4 4 4 4 4 4 4 3 2 1 1 2 1 1 2 1 1 0 0
5 5 5 5 5 5 5 5 5 4 5 5 4 4 4 4 4 4 3 3 4 4 4 4 4 4 4 4 4 4 3 1 1 1 1 1 1 1 1 1 0 0
4 4 4 4 5 5 4 4 4 4 4 4 4 4 4 4 4 4 3 2 2 3 4 4 4 4 4 4 4 3 2 1 1 1 1 1 1 1 2 1 1 0
4 4 4 4 4 4 4 4 4 4 3 3 3 3 3 3 3 4 3 2 1 2 3 3 3 4 4 4 3 3 2 1 1 1 1 2 1 1 2 1 1 0
4 4 4 4 4 4 4 4 4 3 3 3 3 3 3 3 3 3 3 3 1 1 2 3 3 3 3 3 3 3 2 1 1 2 2 2 2 1 2 1 1 0
4 4 4 4 4 4 4 4 3 3 3 2 2 2 2 3 3 3 3 3 2 1 1 2 3 3 3 3 3 3 2 1 1 1 2 2 2 1 1 1 1 0
4 4 4 4 3 4 4 4 3 2 2 2 2 2 2 2 2 2 2 3 3 2 2 2 2 3 2 2 2 2 3 1 1 1 1 1 2 1 1 1 1 0
4 4 4 3 3 4 4 3 3 3 2 2 2 2 2 2 2 2 2 2 2 3 2 2 2 2 2 2 2 2 2 2 1 1 1 1 1 1 1 1 1 0
4 4 3 3 4 4 3 3 3 2 2 2 3 3 2 2 2 1 1 1 1 2 2 2 2 2 2 2 2 2 2 2 1 1 1 1 1 1 1 1 1 0

ECMWFNIL_850_temp_096.txt.gz
Temp
7 7 7 7 7 6 6 6 6 6 7 8 9 9 10 10 10 10 10 10 10 10 10 10 10 10 10 10 10 10 10 10 9 8 9 9 9 8 7 7 7 6
7 6 6 6 6 6 5 5 5 6 7 8 9 9 9 9 9 9 9 9 9 10 10 10 10 10 10 9 9 9 9 9 8 8 8 8 8 8 7 6 6 6
6 6 5 5 5 5 5 5 6 7 8 8 9 9 9 9 9 9 9 9 9 9 9 9 9 9 9 9 9 8 8 8 7 6 6 7 7 7 6 4 5 6
5 5 5 5 5 5 5 5 7 8 8 8 8 8 8 8 8 9 9 9 9 9 9 9 9 9 8 8 8 8 7 7 6 5 5 5 6 5 5 4 4 5
5 5 5 5 5 5 5 6 8 8 8 8 8 8 8 8 8 8 8 8 8 8 8 9 9 8 7 7 8 7 6 6 5 5 5 4 4 4 4 3 3 3
5 5 5 5 5 5 6 7 8 8 8 8 8 8 7 7 7 7 7 8 8 8 8 8 8 7 7 7 7 7 6 5 4 4 4 4 3 3 3 3 2 2
5 5 5 5 5 6 7 8 8 8 8 7 7 7 7 7 7 7 7 7 8 8 8 8 7 7 7 6 6 6 5 5 4 4 3 3 3 3 2 2 2 2
5 5 5 5 6 7 8 8 8 8 8 7 7 7 7 7 7 7 7 7 7 7 7 7 7 7 6 6 5 5 4 4 4 3 3 3 2 2 2 2 2 2
5 5 6 7 7 8 8 8 7 7 7 8 8 7 7 7 7 7 7 7 7 7 7 7 7 7 6 6 5 5 4 3 3 3 2 2 2 2 2 2 1 1
5 6 7 7 7 7 7 7 7 7 7 7 7 6 6 6 6 6 7 7 7 7 7 6 6 7 6 5 4 4 4 3 2 2 2 2 2 2 1 1 1 1
6 6 7 7 7 7 7 7 7 7 7 7 6 6 5 5 5 6 6 6 6 6 6 6 6 6 7 6 4 3 3 3 2 2 2 2 2 2 1 1 1 1
6 7 7 7 7 7 7 7 7 6 6 6 6 6 6 6 6 6 6 6 6 6 6 6 6 6 6 6 5 3 3 2 2 2 2 2 2 2 1 1 1 1
7 7 8 7 7 7 7 7 6 6 6 6 5 5 5 6 6 6 6 6 6 6 6 6 6 6 6 6 6 5 3 2 2 2 2 2 2 2 1 1 1 1
7 7 7 7 7 7 7 7 7 6 6 6 5 4 4 5 5 6 6 6 6 6 6 6 6 6 6 6 5 5 4 2 2 2 2 2 2 2 1 1 1 1
7 7 7 7 7 7 7 7 7 6 6 6 5 4 4 4 5 5 5 5 6 6 6 6 6 6 6 5 5 4 4 3 2 2 2 2 2 2 2 2 2 1
7 7 7 7 7 7 7 6 6 6 5 5 5 5 4 4 5 5 5 5 5 6 6 6 6 6 5 5 5 4 4 3 2 2 2 2 2 2 2 1 1 1
7 7 7 7 7 6 6 6 6 6 5 5 5 5 4 4 5 5 5 5 5 5 5 5 5 5 5 5 5 4 4 3 2 2 2 2 2 2 2 1 1 1
7 7 7 7 6 6 6 6 6 5 5 5 5 5 5 5 5 5 5 5 5 5 5 5 5 5 5 5 5 4 3 3 2 2 2 2 2 2 2 1 1 1
6 7 7 6 6 6 5 5 5 5 5 5 5 5 5 5 5 5 5 5 5 5 5 5 5 5 5 5 5 4 3 2 2 2 2 2 2 2 2 2 2 1
6 6 6 6 6 5 5 5 5 6 5 5 5 5 5 5 4 4 4 4 4 4 4 5 5 5 5 5 4 4 3 2 2 2 2 2 2 2 2 2 2 1
5 6 6 6 5 5 5 5 5 5 5 5 5 5 5 5 5 4 4 4 4 4 4 4 4 4 4 4 4 4 3 2 2 2 2 2 2 2 2 2 2 1
5 6 6 5 5 5 5 5 5 4 4 4 4 4 5 5 5 4 4 4 4 4 4 4 4 4 4 4 4 4 3 3 2 2 2 2 2 2 2 2 1 1
5 5 5 5 5 5 5 5 5 5 4 4 4 4 4 4 4 4 4 4 4 4 4 3 4 4 4 4 4 3 4 4 2 2 2 2 2 2 2 2 1 1
5 5 5 5 5 5 5 5 5 4 4 4 4 4 4 4 4 4 4 4 4 4 4 3 3 3 3 3 3 3 3 4 3 2 2 2 2 1 1 1 1 1
5 5 5 4 4 5 5 4 4 4 3 3 3 3 3 3 3 3 4 4 4 4 3 3 3 3 3 3 3 3 3 3 3 3 2 2 2 1 1 1 1 1
5 4 4 4 5 5 4 4 4 4 3 3 3 3 3 2 2 3 3 3 3 3 3 3 3 3 3 3 3 3 3 3 3 3 2 2 2 2 1 1 1 1

ECMWFNIL_850_temp_102.txt.gz
Temp
11 11 11 11 11 11 10 10 10 9 10 11 11 11 12 12 12 12 11 11 11 11 11 11 11 11 10 10 10 10 10 10 10 9 9 9 8 8 7 7 7 6
11 11 10 10 10 9 8 8 9 9 10 10 11 11 11 11 11 11 11 11 11 11 10 10 10 10 10 9 9 9 9 10 10 9 9 8 7 7 7 6 6 6
10 10 10 9 9 9 8 8 8 9 10 10 10 11 11 11 11 10 10 10 10 10 10 9 9 9 9 9 9 9 9 10 9 9 8 7 7 6 6 6 5 5
10 9 9 9 8 8 8 7 8 9 9 10 10 10 10 10 10 10 10 10 10 10 9 9 9 9 9 9 9 9 9 9 9 8 8 7 6 6 5 5 5 5
9 9 8 8 8 7 7 7 8 8 9 10 10 10 10 10 10 10 10 9 9 9 9 9 9 9 9 9 9 9 9 8 8 7 7 6 5 5 5 5 5 4
8 8 8 8 7 7 7 7 8 8 9 9 10 10 10 10 10 10 9 9 9 9 9 9 9 9 9 9 9 9 8 7 7 7 7 6 5 5 4 4 4 4
9 8 8 7 7 7 7 7 8 8 9 9 9 10 9 9 9 9 9 9 9 9 9 9 9 9 9 8 8 8 8 7 6 6 7 6 5 5 4 4 3 3
9 8 7 7 7 7 7 8 8 8 9 9 9 9 9 9 9 9 9 9 9 9 9 9 9 9 9 8 8 8 7 7 6 6 6 5 5 4 4 3 3 3
9 8 7 7 7 7 7 7 8 8 8 9 9 9 9 9 9 9 9 9 9 9 9 9 9 9 8 8 8 7 6 6 5 5 5 4 4 3 3 3 3 3
8 7 6 6 6 6 7 7 7 8 8 8 9 9 9 9 9 9 9 8 8 8 8 8 8 8 8 8 7 7 6 5 5 4 4 4 3 3 3 3 3 2
6 6 5 5 6 6 7 7 7 8 8 9 9 9 9 9 9 8 8 8 8 8 8 8 7 7 7 7 7 6 5 5 4 4 3 3 3 3 3 3 2 2
5 5 5 5 6 7 7 7 8 8 9 9 9 9 9 9 8 8 8 8 8 8 8 8 7 7 7 6 6 6 5 4 3 3 3 2 2 2 2 2 2 2
5 5 5 6 6 7 7 7 8 8 9 9 9 9 8 8 8 8 8 8 8 8 8 8 7 7 6 6 5 5 4 3 3 3 2 2 2 2 2 2 2 2
5 5 5 6 6 6 7 7 8 8 9 8 8 8 8 8 8 8 8 8 8 7 7 7 7 6 6 5 5 4 3 3 2 2 2 2 2 2 1 1 2 2
5 5 5 6 6 6 7 7 7 8 8 8 8 8 8 8 8 8 8 8 7 7 7 7 7 6 5 5 4 4 3 2 2 2 1 1 2 1 1 1 1 2
5 5 5 5 6 6 6 6 7 7 8 8 8 8 8 8 8 7 7 7 7 7 7 7 6 6 5 5 4 3 3 2 2 1 1 1 1 1 1 1 1 1
5 5 5 5 5 6 6 6 7 7 7 7 7 7 7 7 7 7 7 7 7 7 7 7 6 6 5 4 4 3 3 2 2 1 1 1 1 1 1 1 1 1
4 5 5 5 5 6 6 6 7 7 7 7 7 7 7 7 7 7 7 7 7 7 7 6 6 6 5 4 3 3 2 2 1 1 1 1 1 1 1 1 1 1
4 4 5 5 5 5 6 6 6 7 7 7 7 7 7 7 7 6 7 6 6 6 6 6 6 5 5 4 3 3 2 2 1 2 2 2 1 1 1 1 1 1
4 4 5 5 5 5 5 6 6 7 7 6 6 7 7 6 6 6 6 6 6 6 6 6 6 5 4 4 3 3 2 2 2 2 2 2 2 1 1 1 1 1
4 4 5 5 5 5 5 5 6 6 6 6 6 6 6 6 6 6 6 6 6 6 6 6 5 5 4 4 3 3 3 2 2 2 2 2 2 2 1 1 1 1
4 5 5 5 5 5 5 6 6 6 6 6 6 6 6 6 6 6 6 6 5 5 5 5 5 5 4 4 4 3 3 2 2 2 2 2 2 2 2 2 2 1
4 5 5 5 5 6 6 6 6 6 6 6 6 6 6 6 6 5 5 5 5 5 5 5 5 4 4 4 4 4 3 3 3 3 2 2 2 3 2 2 2 1
5 5 5 5 6 6 6 6 6 6 6 6 6 6 6 6 5 5 5 5 5 4 4 4 4 4 4 4 4 4 4 3 3 3 3 3 3 3 2 2 2 2
5 5 5 6 6 6 6 6 6 6 6 6 6 6 6 5 5 5 5 4 4 4 4 4 4 4 4 4 3 3 3 4 4 3 3 3 3 2 2 2 2 2
5 5 6 6 6 6 6 6 6 6 6 6 6 5 5 5 4 4 4 4 4 4 4 4 4 4 4 4 3 3 4 4 4 4 4 3 3 2 2 2 2 2

ECMWFNIL_850_temp_105.txt.gz
Temp
11 11 11 11 10 10 9 9 9 9 9 9 10 10 10 10 10 10 11 11 11 12 12 12 12 12 12 12 11 11 11 11 11 10 10 9 9 9 8 8 8 7
11 11 10 10 10 9 9 9 9 8 8 9 9 10 10 10 10 10 11 11 11 11 11 11 12 11 11 11 11 11 10 10 10 9 9 9 8 8 8 7 7 6
11 10 10 10 9 9 9 8 8 8 8 8 9 9 10 10 10 10 11 11 11 11 11 11 11 11 11 11 11 10 10 9 9 8 8 8 8 7 7 6 6 6
11 10 10 9 9 9 8 8 7 7 7 8 9 9 9 10 10 10 11 11 11 11 11 11 11 11 10 10 10 10 9 9 8 8 8 8 7 7 6 6 6 6
10 9 9 9 8 8 8 7 7 7 7 8 9 9 9 10 10 10 11 10 10 10 10 10 10 10 10 10 9 9 9 8 7 7 7 7 6 6 6 6 6 6
9 9 8 8 8 8 7 7 6 6 7 8 9 9 9 10 10 10 10 10 10 10 10 10 10 10 9 9 9 9 8 8 7 7 7 6 6 6 6 6 5 5
9 8 8 8 7 7 7 6 6 7 8 8 9 9 9 9 10 10 10 10 10 10 10 10 10 9 9 8 8 8 8 7 6 6 6 6 6 6 6 5 5 5
8 8 8 7 7 7 6 6 6 7 8 8 9 9 9 9 9 10 10 9 9 9 9 9 9 9 9 8 8 8 8 7 6 6 6 6 6 5 5 4 4 4
8 7 7 7 6 6 6 6 7 8 8 8 9 9 9 9 9 9 9 9 9 9 9 9 9 8 8 8 7 8 7 7 6 6 6 6 5 5 4 4 4 4
8 7 6 6 6 6 6 7 7 8 8 8 8 9 9 9 9 9 9 9 9 8 8 8 8 8 8 7 7 7 7 6 6 6 5 5 4 4 4 3 3 3
7 7 6 6 6 6 7 7 7 8 8 8 8 9 9 9 9 8 8 8 8 8 8 8 8 8 7 7 7 7 6 6 6 6 5 5 4 4 3 3 3 3
7 6 6 6 6 7 7 7 7 8 8 8 8 8 8 8 8 8 8 8 8 8 8 7 7 7 7 7 7 6 6 6 6 5 5 4 4 4 3 3 3 3
7 6 6 6 6 7 7 7 7 7 8 8 8 8 8 8 8 8 8 8 7 7 7 7 7 7 7 7 7 6 6 6 5 5 4 4 4 3 3 3 3 3
7 7 6 6 6 6 7 7 7 7 7 8 8 7 7 7 7 8 8 7 7 7 7 7 7 7 7 6 6 6 5 5 5 4 4 3 4 3 3 3 3 3
7 6 6 6 6 6 6 6 7 7 7 7 7 7 7 7 7 7 7 7 7 7 7 7 7 7 6 6 6 6 5 4 5 4 3 3 3 3 2 2 2 3
6 6 5 5 5 6 6 6 6 7 7 7 7 7 7 7 7 7 7 7 7 7 7 7 7 6 6 6 6 5 5 4 4 4 3 3 3 2 1 2 2 2
5 5 5 5 5 5 5 6 6 6 7 7 7 7 7 7 7 7 7 7 7 7 7 7 6 6 6 6 5 5 4 4 4 4 3 2 2 2 1 1 2 2
5 5 4 4 5 5 5 6 6 6 7 7 7 7 7 7 7 7 7 7 7 7 7 7 6 6 6 5 5 5 4 4 4 3 3 2 2 1 1 1 2 2
5 4 4 4 5 5 5 6 6 6 6 7 7 7 7 7 7 7 7 7 7 7 7 7 6 6 5 5 5 4 4 4 3 3 2 2 2 1 2 2 2 2
4 4 4 4 5 5 5 6 6 6 6 6 6 7 7 7 7 7 7 7 7 7 7 6 6 6 5 5 5 4 4 4 3 3 3 2 2 1 2 2 2 2
4 4 4 4 5 5 5 5 6 6 6 6 6 6 6 6 6 6 7 7 7 7 6 6 6 6 5 5 4 4 4 4 3 3 3 2 2 2 2 1 1 1
4 4 4 5 5 5 5 5 5 6 6 6 6 6 6 6 6 6 6 6 7 6 6 6 6 5 5 5 4 4 4 4 4 3 3 2 2 2 2 1 1 1
4 4 5 5 5 5 5 5 5 5 5 6 6 6 6 6 6 6 6 6 6 6 6 6 6 5 5 5 4 4 4 4 4 3 3 3 2 2 2 1 1 2
4 4 5 5 5 5 5 5 5 5 5 5 5 6 6 6 6 6 6 6 6 6 5 5 5 5 5 5 4 4 4 4 4 3 3 3 2 2 2 2 2 2
5 5 5 5 5 5 5 5 5 5 5 5 5 5 5 6 6 6 6 6 6 5 5 5 5 5 5 5 4 4 4 4 4 3 3 3 3 2 2 2 2 2
5 5 5 5 5 5 5 5 5 5 5 5 5 5 5 5 5 5 6 6 5 5 5 4 4 5 5 4 4 4 4 4 4 3 3 3 3 3 2 2 2 2

ECMWFNIL_850_temp_111.txt.gz
Temp
12 12 12 12 11 11 11 11 11 11 10 10 10 10 10 10 10 10 10 10 10 10 10 11 11 11 11 11 11 11 11 12 12 11 11 11 11 11 11 11 11 10
12 12 12 11 11 11 11 11 10 10 9 9 9 9 9 9 10 10 10 10 10 10 10 10 10 10 10 10 10 11 11 11 11 11 11 11 11 11 11 10 10 10
12 11 11 11 11 11 11 10 10 9 9 8 8 8 8 9 9 9 9 9 9 10 10 10 10 10 10 10 10 10 11 11 11 10 10 11 10 10 10 10 9 9
11 11 11 11 11 11 10 10 9 9 8 8 8 8 8 9 9 9 9 9 9 9 9 9 9 9 9 9 9 10 10 10 10 10 10 10 10 10 10 9 8 8
11 11 11 11 11 10 10 9 9 8 8 7 8 8 8 9 9 9 9 9 9 9 9 9 9 9 9 9 9 9 10 10 10 9 9 10 9 9 9 8 8 8
11 11 11 11 10 10 10 9 8 8 7 7 8 8 8 9 9 9 8 8 8 8 8 8 9 9 9 9 9 9 9 10 9 9 9 9 9 8 8 7 7 7
11 11 11 10 10 10 9 8 8 7 7 7 8 8 9 9 8 8 8 8 8 8 8 8 8 8 8 8 8 9 9 9 9 8 8 8 8 8 7 7 7 7
12 11 11 10 10 9 9 8 7 7 7 8 8 8 8 8 8 8 8 7 7 7 7 7 8 8 8 8 8 8 8 8 8 8 8 8 7 7 7 6 6 6
11 11 10 10 9 9 8 7 7 7 7 8 8 8 8 8 8 7 7 7 7 7 7 7 8 8 8 7 7 8 8 8 8 7 7 7 7 7 6 6 6 6
11 10 10 10 9 9 8 7 7 7 7 8 8 8 8 8 7 7 7 7 7 7 7 7 7 8 8 7 7 7 7 7 7 7 7 7 7 6 6 6 6 6
11 11 10 10 10 9 7 6 6 7 7 8 8 8 8 8 7 7 7 7 7 7 7 7 7 7 7 7 7 7 7 7 7 6 6 6 6 6 6 6 6 6
11 11 10 10 9 8 7 6 6 6 7 7 8 8 8 7 7 7 7 7 7 6 7 7 7 7 7 7 7 6 6 6 6 6 6 6 6 6 6 6 6 6
11 11 10 10 9 8 6 6 6 6 7 7 7 7 7 7 7 7 7 7 6 6 6 7 7 7 7 7 6 6 6 6 6 6 6 6 6 6 6 6 6 5
11 10 10 9 9 7 7 6 6 6 7 7 7 7 7 7 7 7 7 7 6 6 6 6 7 7 7 7 6 5 5 5 5 6 6 6 6 6 6 6 5 5
11 10 10 9 8 7 7 6 6 6 7 7 7 7 7 7 7 7 7 7 7 6 6 6 7 7 7 6 6 5 5 5 5 5 5 6 6 6 6 5 5 5
10 10 10 9 8 7 7 6 6 6 7 7 7 7 7 7 7 7 7 7 7 7 6 6 6 6 6 6 5 5 5 4 4 5 5 5 5 6 6 5 5 5
10 10 10 9 8 7 6 6 6 6 6 6 6 7 7 7 7 7 7 7 6 6 6 6 6 6 6 6 5 5 4 4 4 4 5 5 5 5 5 5 5 5
10 10 9 9 8 7 6 6 6 6 6 6 6 7 7 7 7 7 7 7 6 6 6 6 6 6 6 6 5 5 4 3 3 4 5 5 5 5 5 5 5 5
10 10 9 9 7 7 6 6 6 6 6 6 6 7 7 7 7 7 7 7 6 6 6 6 6 6 6 5 5 4 4 3 3 4 4 4 4 5 5 5 5 4
10 10 9 8 7 6 6 6 6 6 6 6 6 6 7 7 7 7 7 6 6 6 6 6 6 6 6 5 5 4 3 3 3 3 4 4 4 4 5 5 4 4
10 10 9 8 7 6 6 5 5 6 6 6 6 6 7 7 7 7 7 6 6 6 6 6 6 6 5 5 5 4 3 3 3 3 3 4 4 4 5 5 4 4
9 9 9 8 7 6 6 5 5 5 6 6 6 6 6 6 7 6 6 6 6 6 6 6 6 5 5 5 4 4 3 3 3 3 3 3 4 4 5 5 4 4
9 9 8 8 7 6 6 6 5 5 6 6 6 6 6 7 6 6 6 6 6 6 6 6 5 5 5 5 4 4 3 3 3 3 3 4 4 4 4 5 5 4
8 8 8 8 7 6 6 6 5 5 5 6 6 6 7 7 6 6 6 6 6 6 6 5 5 5 5 4 4 4 4 4 3 3 3 4 4 4 5 5 5 4
8 8 7 7 7 6 6 6 6 5 5 6 6 6 6 6 6 6 6 6 6 5 5 5 5 4 4 4 4 4 4 4 3 4 4 4 4 4 5 5 5 5
8 7 7 7 6 6 5 6 6 5 5 6 6 6 6 6 6 6 6 5 5 5 5 5 5 4 4 4 4 4 4 4 4 4 4 4 4 4 5 5 5 5

ECMWFNIL_850_temp_114.txt.gz
Temp
13 13 12 12 12 12 12 11 11 10 10 10 10 10 10 11 11 11 11 12 11 12 12 12 12 12 11 11 11 11 11 11 11 11 11 11 11 11 11 11 11 10
13 13 12 12 12 12 11 11 11 10 10 9 9 10 10 10 11 11 11 11 11 11 11 11 11 11 11 11 11 11 11 11 11 11 11 11 11 11 10 10 10 10
13 12 12 12 12 12 11 11 10 10 9 9 9 9 9 10 10 11 11 11 11 11 11 11 11 11 10 10 10 10 10 11 11 10 10 10 10 10 10 10 10 10
12 12 12 12 12 12 11 10 10 9 9 9 9 9 9 10 10 11 11 11 11 11 11 10 10 10 10 10 10 10 10 10 10 10 10 10 10 10 10 9 9 9
12 12 12 12 12 11 11 10 9 9 9 9 9 9 9 10 10 10 10 10 10 10 10 10 10 10 10 10 10 10 10 10 10 9 10 10 9 9 9 9 9 9
12 12 12 12 11 11 10 10 9 9 9 9 9 9 9 10 10 10 10 10 10 10 10 10 10 10 9 9 10 10 10 10 9 9 9 9 9 9 9 9 9 9
12 12 12 11 11 10 10 10 9 9 9 9 10 10 9 9 10 10 9 9 9 9 9 9 9 9 9 9 9 9 9 9 9 9 9 9 9 9 9 8 8 8
12 12 12 11 11 10 10 9 9 9 9 9 10 9 9 9 9 9 9 9 9 9 9 9 9 9 9 9 9 9 9 9 9 8 9 9 8 8 8 8 8 7
12 12 11 11 11 10 10 9 8 8 9 9 10 9 9 9 9 9 9 8 8 9 9 9 9 9 9 8 8 8 8 8 9 8 8 8 8 8 8 7 7 7
12 12 11 11 10 10 9 8 8 8 9 9 9 9 9 9 8 8 8 8 8 8 8 9 9 8 8 8 8 8 8 8 8 8 8 8 8 7 7 7 7 6
12 12 11 10 10 10 9 8 8 8 9 9 9 9 8 8 8 8 8 8 8 8 8 8 8 8 7 7 7 7 7 8 8 8 8 7 7 7 6 6 6 6
12 11 11 10 10 10 9 8 8 8 9 9 9 8 8 8 8 8 8 7 8 8 8 8 7 7 7 7 7 7 7 8 8 8 7 7 7 6 6 6 6 6
11 11 10 10 10 10 9 8 8 8 8 9 9 8 8 8 8 8 7 7 7 7 7 7 7 7 7 7 7 7 7 7 7 7 7 7 6 6 6 5 5 5
11 11 10 10 10 10 9 8 8 8 8 9 9 8 8 8 8 8 7 6 6 6 6 6 7 7 7 6 6 6 6 7 7 7 6 6 6 5 5 5 5 5
11 10 10 10 10 9 9 8 8 8 8 9 8 8 8 8 7 7 7 6 6 6 6 6 6 6 6 6 5 6 6 6 6 6 6 6 6 5 5 5 5 5
11 11 10 10 10 9 9 8 8 8 9 8 8 8 8 8 7 7 6 6 6 6 6 6 6 6 6 6 6 6 6 6 6 6 6 6 5 5 5 5 5 5
11 11 11 10 10 9 9 8 8 8 8 8 8 8 8 8 7 7 6 6 6 6 6 6 6 7 6 6 6 5 5 5 5 5 5 5 5 5 4 4 4 4
11 11 11 10 10 9 9 8 8 8 8 8 8 8 8 8 7 7 6 6 6 6 6 6 6 7 6 5 5 5 5 5 4 5 5 4 4 3 3 3 4 4
11 11 11 10 10 9 9 8 8 8 8 7 8 8 8 8 7 7 6 6 6 6 6 6 6 6 6 5 5 5 5 4 3 4 4 3 3 3 2 2 3 3
11 11 10 10 10 9 9 8 8 7 7 7 7 8 8 7 7 7 7 7 6 6 6 6 6 6 6 5 5 5 5 4 3 3 3 2 2 3 2 3 3 2
11 11 10 10 10 9 9 8 7 7 7 7 7 7 7 7 7 7 7 6 6 6 5 5 5 6 5 5 4 4 4 4 2 2 2 2 2 3 3 3 4 3
11 11 10 10 10 9 9 8 7 7 7 7 7 7 7 7 7 7 7 6 6 5 5 4 5 5 5 5 4 4 4 4 2 2 2 2 2 2 3 3 4 4
11 11 10 10 9 9 9 8 8 7 7 7 7 6 6 6 7 6 6 6 5 5 4 4 5 5 5 4 4 3 4 3 2 2 2 2 2 2 2 3 4 4
11 10 10 9 9 8 8 9 8 7 7 7 7 7 6 6 6 6 6 6 5 5 5 5 5 5 5 4 4 4 4 4 3 2 2 2 2 2 2 3 4 5
10 10 9 9 9 8 8 8 7 7 6 7 6 6 6 6 6 6 6 6 6 5 5 5 5 5 5 5 5 4 5 5 4 3 3 2 2 3 3 3 4 5
10 10 10 9 9 8 8 7 7 6 6 6 6 6 6 6 6 6 6 6 6 5 5 5 5 5 5 5 5 5 5 5 3 2 2 3 3 3 3 3 4 5

ECMWFNIL_850_temp_117.txt.gz
Temp
13 13 13 13 12 12 12 11 11 11 10 10 10 9 9 9 10 12 12 12 13 13 13 13 13 13 13 13 12 12 12 12 12 12 12 11 11 11 11 11 11 11
13 13 12 12 12 11 11 11 11 11 10 10 9 9 8 8 9 11 12 12 12 12 12 12 12 12 12 12 12 12 12 12 12 11 11 11 11 11 11 11 11 11
13 12 12 12 12 11 11 11 11 11 10 10 9 9 8 7 9 11 11 12 12 12 12 12 12 12 12 11 11 11 11 11 11 11 11 11 11 11 11 11 11 10
13 12 12 12 12 12 12 12 12 11 10 9 9 8 7 7 9 10 11 11 12 12 12 11 11 11 11 11 11 11 11 11 11 11 11 11 10 10 10 10 10 10
12 12 12 11 11 12 12 12 11 10 9 9 8 8 7 7 9 10 11 11 11 11 11 11 11 11 11 11 11 11 11 11 11 10 10 10 10 10 10 10 10 10
12 12 12 11 12 12 12 12 11 10 9 8 8 7 7 8 10 10 11 11 11 11 11 11 11 11 11 11 11 11 10 10 10 10 10 10 10 10 10 9 9 9
12 12 11 12 12 12 12 11 10 9 9 8 7 7 8 9 10 10 11 11 11 10 11 11 11 11 10 10 10 10 10 10 10 9 9 10 9 9 9 9 9 9
12 11 12 12 12 12 12 11 10 9 8 8 7 7 8 9 9 10 10 10 10 10 10 10 10 10 10 10 10 10 10 9 9 9 9 9 9 9 9 9 9 9
12 12 12 13 12 12 11 11 10 9 8 7 7 8 8 8 9 10 10 10 10 10 10 10 10 10 10 10 10 9 9 9 9 9 9 8 8 8 8 9 9 8
12 12 13 13 12 11 11 10 9 9 8 7 7 8 8 8 9 9 10 10 10 10 10 10 10 10 9 9 9 9 9 9 9 8 8 7 7 8 8 8 8 8
12 13 13 12 12 11 10 10 9 8 7 7 7 8 8 8 9 9 9 10 9 9 10 10 10 9 9 9 9 9 9 9 8 8 7 7 7 7 8 8 8 8
13 13 12 12 11 11 10 10 9 8 7 7 8 8 8 8 8 8 9 9 9 9 9 9 9 9 9 9 9 9 9 8 8 7 7 7 7 7 7 7 7 7
12 12 12 12 11 10 10 9 8 8 7 7 7 7 8 8 8 8 8 8 8 7 8 8 9 8 8 8 8 8 8 8 7 7 7 7 7 7 7 7 7 7
12 12 11 11 11 10 10 9 8 8 7 7 7 7 8 8 8 8 8 7 7 7 7 8 8 7 7 7 7 7 7 7 7 6 6 6 6 7 7 7 7 7
12 11 11 11 11 10 10 9 8 7 7 7 7 7 8 8 7 8 7 7 7 7 7 7 7 6 6 6 6 6 6 6 6 6 6 6 6 7 7 6 6 7
11 11 11 11 11 10 10 9 8 7 6 7 7 7 8 7 7 7 7 7 7 6 7 7 6 6 6 6 5 5 5 5 5 5 5 5 5 6 6 5 6 7
11 11 11 11 11 10 10 9 8 7 6 7 7 7 8 7 7 7 7 6 6 6 7 7 6 6 7 7 6 5 5 5 5 5 4 4 5 5 5 5 5 6
11 12 12 11 10 10 10 9 8 6 6 6 7 7 7 7 7 7 6 6 6 6 6 6 6 7 8 7 6 6 5 4 4 4 4 4 4 4 5 5 4 4
12 12 12 11 11 10 9 9 7 6 6 6 7 7 7 7 7 6 6 6 6 6 6 6 7 8 8 7 7 7 6 5 4 4 4 4 4 4 4 5 5 4
12 12 11 11 11 10 10 9 6 5 6 7 7 7 7 7 6 6 6 6 5 5 5 5 7 8 7 6 6 6 6 5 4 4 4 4 4 5 4 4 4 4
12 12 12 11 11 10 10 9 6 6 7 7 7 7 7 7 6 6 6 5 5 5 5 5 7 7 7 6 7 6 6 5 4 4 5 4 5 5 5 5 5 5
12 12 12 11 11 10 10 9 8 7 7 7 7 6 6 6 6 5 5 5 5 5 5 4 6 7 7 7 7 6 6 6 5 5 5 4 4 5 5 4 5 5
12 12 12 11 11 11 10 9 8 7 7 7 7 6 6 6 5 5 5 5 5 5 4 4 6 7 7 6 7 6 6 7 6 5 4 3 3 4 4 4 4 5
12 12 12 11 11 11 10 10 8 7 7 7 7 7 7 6 6 5 4 4 5 4 4 4 6 7 7 6 7 7 7 7 6 4 3 3 3 3 3 3 4 5
12 11 11 12 11 11 10 9 8 7 6 6 6 7 7 6 6 5 5 5 5 5 4 4 6 7 7 7 7 7 6 6 5 3 3 3 3 3 3 3 4 5
12 11 11 11 11 11 10 9 8 7 6 6 6 6 6 6 6 6 6 6 5 5 5 4 5 7 7 6 7 6 6 6 4 3 3 4 3 3 3 3 3 4

ECMWFNIL_850_temp_123.txt.gz
Temp
14 14 14 14 14 14 14 14 14 14 13 13 13 13 13 13 13 14 14 15 15 14 14 14 14 14 14 14 14 14 14 14 14 14 14 14 14 14 13 13 13 13
14 14 14 14 14 13 14 14 14 13 13 13 13 13 13 13 14 14 14 15 15 14 14 14 14 14 14 14 14 14 14 14 14 14 14 14 13 13 13 13 13 13
14 13 13 13 13 13 13 13 13 13 13 13 13 13 13 13 14 14 14 14 14 14 13 13 13 14 14 14 14 14 14 14 14 14 13 13 13 13 13 13 13 12
13 13 13 13 13 13 13 13 12 12 13 13 13 13 13 13 13 13 13 14 14 13 13 13 13 13 13 13 13 13 13 13 13 13 13 13 13 13 13 12 12 12
13 13 13 13 13 13 13 12 12 12 12 12 12 12 12 13 13 13 13 13 13 13 13 13 13 13 13 13 13 13 13 13 13 13 13 13 13 12 12 12 12 11
13 13 13 13 12 12 12 12 12 12 12 12 12 12 12 12 12 13 13 13 13 13 13 13 13 13 13 13 13 13 13 13 13 13 12 12 12 12 12 11 11 11
13 13 13 12 12 12 12 12 12 12 12 12 12 12 12 12 13 13 13 13 13 13 12 12 12 13 13 13 13 13 13 13 12 12 12 12 12 12 11 11 11 11
13 13 12 12 12 12 12 12 12 12 12 12 12 12 12 12 13 13 13 13 12 12 12 12 12 12 12 12 13 13 12 12 12 12 12 12 11 11 11 11 11 11
13 13 12 12 12 12 12 12 12 12 12 12 12 12 12 12 12 13 13 12 12 11 11 11 12 12 12 12 12 12 12 12 12 12 12 11 11 11 11 11 11 10
13 13 12 12 12 12 12 12 12 12 12 12 11 11 11 12 13 13 13 12 12 11 11 11 12 12 12 12 12 12 12 12 12 12 11 11 11 11 11 11 10 10
13 13 12 12 12 12 12 11 12 12 12 12 11 11 12 12 13 13 12 12 11 11 11 11 12 12 12 12 11 11 12 12 12 11 11 11 11 11 11 10 10 10
13 13 12 12 12 12 12 12 12 12 12 11 11 11 12 12 13 12 12 12 11 11 11 11 11 12 11 11 11 11 11 11 11 11 11 11 11 11 10 10 10 10
13 13 13 12 12 12 12 12 12 12 12 12 11 11 12 12 12 11 11 11 11 11 11 11 11 11 11 11 11 11 11 11 11 11 11 11 11 11 10 10 10 10
13 13 13 12 12 12 12 12 12 12 12 11 11 11 12 12 11 11 10 10 10 11 11 11 11 11 11 11 11 11 11 11 11 11 11 11 10 10 10 10 10 10
13 13 12 12 12 12 12 12 12 12 11 11 11 11 11 11 10 10 10 10 10 10 11 11 11 11 11 11 11 11 11 11 11 11 10 10 10 10 10 10 10 10
13 12 12 12 12 12 11 12 12 11 11 11 11 11 11 10 9 9 9 9 10 10 10 10 10 10 10 10 11 11 11 11 11 10 10 10 10 10 10 10 10 9
12 12 12 12 12 11 11 12 11 11 11 11 11 11 10 9 9 9 9 9 9 9 9 10 9 10 10 10 10 10 10 10 10 10 10 10 10 10 10 10 10 9
12 12 12 12 12 11 11 11 11 10 11 11 11 10 9 8 8 8 9 9 8 9 9 9 8 9 9 9 9 9 9 9 9 10 10 10 10 10 10 10 9 9
12 12 12 12 12 11 11 11 10 10 11 11 10 10 9 8 8 8 8 8 8 8 8 8 8 8 8 8 8 8 8 8 9 9 9 9 9 9 9 9 9 9
12 12 12 12 12 11 11 10 10 10 11 11 10 9 8 8 8 8 8 8 7 8 7 7 8 8 8 7 7 7 7 8 8 9 9 9 9 9 9 9 9 8
12 12 12 12 11 11 11 10 10 10 11 11 10 10 8 8 8 8 8 7 7 7 7 7 8 8 7 7 6 6 7 7 8 8 8 8 8 9 9 9 8 8
12 12 12 12 11 10 10 10 10 11 11 11 10 9 8 8 8 7 7 7 7 7 7 7 7 7 7 7 7 7 7 7 7 7 8 8 8 8 8 8 8 8
12 12 12 11 11 10 10 10 11 11 11 11 10 9 8 8 7 7 7 7 7 7 7 7 7 7 8 8 8 8 8 7 7 7 7 7 7 8 7 7 7 8
12 12 12 11 10 10 10 10 11 11 11 11 11 10 9 8 7 7 7 7 7 7 7 7 7 8 9 8 8 8 8 7 7 7 6 6 7 7 6 6 6 7
12 12 11 11 10 10 10 11 11 11 10 10 11 10 9 8 7 7 7 7 7 7 7 7 8 8 9 8 8 8 7 7 6 6 6 6 6 6 6 6 6 6
12 11 11 11 11 10 10 11 11 10 10 10 10 10 9 8 7 7 7 7 7 7 7 7 7 8 8 8 8 7 7 6 6 6 6 7 6 6 6 6 6 6